Weather History for Show Low, AZ

Change the Weather History Date:

Sunday, February 17, 2013

  Actual Average Record
Temperature  
Mean Temperature 38 °F -  
Max Temperature 50 °F 48 °F 68 °F (1977)
Min Temperature 26 °F 29 °F 4 °F (1969)
Degree Days  
Heating Degree Days 27    
Moisture  
Dew Point 10 °F    
Average Humidity 34    
Maximum Humidity 64    
Minimum Humidity 19    
Precipitation  
Precipitation 0.00 in - - ()
Sea Level Pressure  
Sea Level Pressure 29.99 in    
Wind  
Wind Speed 9 mph (SSW)    
Max Wind Speed 26 mph    
Max Gust Speed 38 mph    
Visibility 10 miles    
Events      
Averages and records for this station are not official NWS values.
T = Trace of Precipitation, MM = Missing Value Source: NWS Daily Summary

Daily Weather History Graph

Daily Weather History Graph

Search for Another Location

Airport:

Trip Planner

Search our weather history database for the weather conditions in past years. The results will help you decide how hot, cold, wet, or windy it might be!

Date:

Astronomy

Feb. 17, 2013 Rise Set
Actual Time 7:02 AM MST 6:05 PM MST
Civil Twilight 6:37 AM MST 6:31 PM MST
Nautical Twilight 6:07 AM MST 7:00 PM MST
Astronomical Twilight 5:38 AM MST 7:29 PM MST
Moon 11:18 AM MST (2/17) 12:44 AM MST (2/17)
Length of Visible Light 11h 54m
Length of Day
11h 03m
Waxing Crescent, 49% of the Moon is Illuminated
Feb 17
Waxing Crescent
Feb 17
First Quarter
Feb 25
Full
Mar 4
Last Quarter
Mar 11
New

Hourly Weather History & Observations

Time (MST) Temp. Windchill Dew Point Humidity Pressure Visibility Wind Dir Wind Speed Gust Speed Precip Events Conditions
12:15 AM 33.8 °F 28.6 °F 12.2 °F 41% 30.16 in 10.0 mi SSE 5.8 mph - N/A   Clear
12:35 AM 32.0 °F - 12.2 °F 44% 30.15 in 10.0 mi Calm Calm - N/A   Clear
12:55 AM 32.0 °F - 12.2 °F 44% 30.15 in 10.0 mi Calm Calm - N/A   Clear
1:15 AM 28.4 °F 21.2 °F 15.8 °F 59% 30.14 in 10.0 mi South 6.9 mph - N/A   Clear
1:35 AM 26.6 °F - 15.8 °F 64% 30.13 in 10.0 mi Calm Calm - N/A   Clear
1:55 AM 26.6 °F 22.6 °F 15.8 °F 64% 30.13 in 10.0 mi SSW 3.5 mph - N/A   Clear
2:15 AM 28.4 °F 21.2 °F 14.0 °F 55% 30.12 in 10.0 mi SSE 6.9 mph - N/A   Clear
2:35 AM 32.0 °F - 10.4 °F 41% 30.11 in 10.0 mi Calm Calm - N/A   Clear
2:55 AM 30.2 °F - 10.4 °F 44% 30.10 in 10.0 mi Calm Calm - N/A   Clear
3:15 AM 32.0 °F - 10.4 °F 41% 30.09 in 10.0 mi Calm Calm - N/A   Clear
3:35 AM 32.0 °F - 8.6 °F 38% 30.08 in 10.0 mi Calm Calm - N/A   Clear
3:55 AM 30.2 °F - 10.4 °F 44% 30.07 in 10.0 mi Calm Calm - N/A   Clear
4:15 AM 32.0 °F 27.5 °F 8.6 °F 38% 30.06 in 10.0 mi SSE 4.6 mph - N/A   Clear
4:35 AM 32.0 °F - 8.6 °F 38% 30.06 in 10.0 mi Calm Calm - N/A   Clear
4:55 AM 28.4 °F 21.2 °F 8.6 °F 43% 30.05 in 10.0 mi SW 6.9 mph - N/A   Clear
5:15 AM 28.4 °F 21.2 °F 10.4 °F 47% 30.05 in 10.0 mi South 6.9 mph - N/A   Clear
5:35 AM 28.4 °F 20.4 °F 10.4 °F 47% 30.05 in 10.0 mi SSW 8.1 mph - N/A   Clear
5:55 AM 28.4 °F 20.4 °F 12.2 °F 51% 30.05 in 10.0 mi South 8.1 mph - N/A   Clear
6:15 AM 28.4 °F 19.7 °F 10.4 °F 47% 30.04 in 10.0 mi South 9.2 mph - N/A   Clear
6:35 AM 28.4 °F 20.4 °F 10.4 °F 47% 30.04 in 10.0 mi South 8.1 mph - N/A   Clear
6:55 AM 26.6 °F 17.5 °F 10.4 °F 51% 30.03 in 10.0 mi South 9.2 mph - N/A   Clear
7:15 AM 30.2 °F 20.2 °F 6.8 °F 37% 30.03 in 10.0 mi South 12.7 mph - N/A   Clear
7:35 AM 32.0 °F 22.5 °F 5.0 °F 32% 30.03 in 10.0 mi South 12.7 mph - N/A   Clear
7:55 AM 35.6 °F 27.5 °F 5.0 °F 28% 30.03 in 10.0 mi South 11.5 mph - N/A   Clear
8:15 AM 37.4 °F 30.8 °F 5.0 °F 26% 30.03 in 10.0 mi South 9.2 mph - N/A   Clear
8:35 AM 37.4 °F 31.4 °F 6.8 °F 28% 30.03 in 10.0 mi South 8.1 mph - N/A   Clear
8:55 AM 41.0 °F 35.2 °F 6.8 °F 24% 30.03 in 10.0 mi South 9.2 mph - N/A   Clear
9:15 AM 44.6 °F 41.4 °F 6.8 °F 21% 30.02 in 10.0 mi South 5.8 mph - N/A   Clear
9:35 AM 46.4 °F 40.4 °F 6.8 °F 20% 30.01 in 10.0 mi South 13.8 mph 20.7 mph N/A   Clear
9:55 AM 48.2 °F - 6.8 °F 19% 30.01 in 10.0 mi South 13.8 mph 18.4 mph N/A   Clear
10:15 AM 48.2 °F - 8.6 °F 20% 30.00 in 10.0 mi South 13.8 mph 23.0 mph N/A   Clear
10:35 AM 48.2 °F - 8.6 °F 20% 30.00 in 10.0 mi SSW 18.4 mph 26.5 mph N/A   Clear
10:55 AM 50.0 °F - 10.4 °F 20% 29.99 in 10.0 mi SSW 23.0 mph 29.9 mph N/A   Clear
11:15 AM 50.0 °F - 10.4 °F 20% 29.98 in 10.0 mi SSW 23.0 mph 32.2 mph N/A   Clear
11:35 AM 50.0 °F - 10.4 °F 20% 29.97 in 10.0 mi SSW 21.9 mph 28.8 mph N/A   Clear
11:55 AM 50.0 °F - 10.4 °F 20% 29.97 in 10.0 mi SSW 19.6 mph 28.8 mph N/A   Clear
12:15 PM 50.0 °F - 14.0 °F 24% 29.96 in 10.0 mi SSW 13.8 mph 27.6 mph N/A   Clear
12:35 PM 50.0 °F - 14.0 °F 24% 29.95 in 10.0 mi South 23.0 mph 31.1 mph N/A   Clear
12:55 PM 50.0 °F - 14.0 °F 24% 29.93 in 10.0 mi SSW 21.9 mph 34.5 mph N/A   Clear
1:15 PM 50.0 °F - 14.0 °F 24% 29.92 in 10.0 mi SSW 26.5 mph 38.0 mph N/A   Clear
1:35 PM 50.0 °F - 14.0 °F 24% 29.91 in 10.0 mi SSW 20.7 mph 31.1 mph N/A   Clear
1:55 PM 50.0 °F - 14.0 °F 24% 29.90 in 10.0 mi SW 25.3 mph 32.2 mph N/A   Clear
2:15 PM 50.0 °F - 12.2 °F 22% 29.90 in 10.0 mi SW 19.6 mph 33.4 mph N/A   Clear
2:35 PM 50.0 °F - 14.0 °F 24% 29.89 in 10.0 mi SSW 19.6 mph 31.1 mph N/A   Clear
2:55 PM 50.0 °F - 10.4 °F 20% 29.89 in 10.0 mi SW 25.3 mph 29.9 mph N/A   Clear
3:15 PM 50.0 °F - 14.0 °F 24% 29.89 in 10.0 mi SW 19.6 mph 24.2 mph N/A   Clear
3:35 PM 50.0 °F - 12.2 °F 22% 29.88 in 10.0 mi SW 21.9 mph 27.6 mph N/A   Clear
3:55 PM 50.0 °F - 10.4 °F 20% 29.88 in 10.0 mi SW 21.9 mph 31.1 mph N/A   Clear
4:15 PM 50.0 °F - 8.6 °F 19% 29.88 in 10.0 mi SSW 16.1 mph 28.8 mph N/A   Clear
4:35 PM 48.2 °F - 10.4 °F 22% 29.88 in 10.0 mi SW 17.3 mph 29.9 mph N/A   Clear
4:55 PM 48.2 °F - 8.6 °F 20% 29.88 in 10.0 mi SW 25.3 mph 34.5 mph N/A   Clear
5:15 PM 46.4 °F 38.3 °F 6.8 °F 20% 29.88 in 10.0 mi SSW 23.0 mph 29.9 mph N/A   Clear
5:35 PM 44.6 °F 36.4 °F 6.8 °F 21% 29.89 in 10.0 mi SW 20.7 mph 28.8 mph N/A   Clear
5:55 PM 44.6 °F 39.2 °F 8.6 °F 23% 29.90 in 10.0 mi SW 10.4 mph - N/A   Clear
6:15 PM 41.0 °F 35.8 °F 8.6 °F 26% 29.92 in 10.0 mi SW 8.1 mph - N/A   Clear
6:35 PM 41.0 °F 35.2 °F 8.6 °F 26% 29.92 in 10.0 mi SSW 9.2 mph - N/A   Clear
6:55 PM 39.2 °F 32.0 °F 8.6 °F 28% 29.92 in 10.0 mi SSW 11.5 mph - N/A   Clear
7:15 PM 39.2 °F 34.2 °F 8.6 °F 28% 29.94 in 10.0 mi SSW 6.9 mph - N/A   Clear
7:35 PM 37.4 °F 32.1 °F 10.4 °F 33% 29.94 in 10.0 mi South 6.9 mph - N/A   Clear
7:55 PM 35.6 °F 29.2 °F 10.4 °F 35% 29.95 in 10.0 mi SSW 8.1 mph - N/A   Clear
8:15 PM 35.6 °F 28.6 °F 10.4 °F 35% 29.95 in 10.0 mi SSW 9.2 mph - N/A   Clear
8:35 PM 35.6 °F 29.2 °F 10.4 °F 35% 29.95 in 10.0 mi SSW 8.1 mph - N/A   Clear
8:55 PM 32.0 °F 28.7 °F 10.4 °F 41% 29.97 in 10.0 mi South 3.5 mph - N/A   Clear
9:15 PM 32.0 °F 23.0 °F 12.2 °F 44% 29.96 in 10.0 mi SSW 11.5 mph - N/A   Clear
9:35 PM 32.0 °F 27.5 °F 10.4 °F 41% 29.97 in 10.0 mi SW 4.6 mph - N/A   Clear
9:55 PM 32.0 °F 24.2 °F 12.2 °F 44% 29.97 in 10.0 mi South 9.2 mph - N/A   Clear
10:15 PM 32.0 °F 23.6 °F 12.2 °F 44% 29.98 in 10.0 mi SSW 10.4 mph - N/A   Clear
10:35 PM 32.0 °F 24.2 °F 12.2 °F 44% 29.99 in 10.0 mi South 9.2 mph - N/A   Clear
10:55 PM 32.0 °F 23.0 °F 12.2 °F 44% 29.99 in 10.0 mi South 11.5 mph - N/A   Clear
11:15 PM 32.0 °F 23.0 °F 12.2 °F 44% 29.99 in 10.0 mi South 11.5 mph - N/A   Clear
11:35 PM 32.0 °F 23.6 °F 12.2 °F 44% 30.00 in 10.0 mi South 10.4 mph - N/A   Clear
11:55 PM 32.0 °F 23.0 °F 12.2 °F 44% 30.00 in 10.0 mi South 11.5 mph - N/A   Clear